Regional Weather Roundup
Issued by NWS

Home | Current Version | Previous Version | Graphics & Text | Print | Product List | Glossary On
Versions: 1 2 3 4 5 6 7 8 9 10 11 12 13 14 15 16 17 18 19 20 21 22 23 24 25 26 27 28 29 30 31 32 33 34 35 36 37 38 39 40 41 42 43 44 45 46 47 48 49 50
000
ASUS43 KDTX 310110
RWRMI
MICHIGAN HOURLY REGIONAL WEATHER ROUNDUP
NATIONAL WEATHER SERVICE DETROIT/PONTIAC MI
900 PM EDT SAT AUG 30 2014

NOTE: "FAIR" INDICATES FEW OR NO CLOUDS BELOW 12,000 FEET WITH NO
SIGNIFICANT WEATHER AND/OR OBSTRUCTION TO VISIBILITY.

MIZ047>049-052>055-059>063-066>070-074>076-081>083-310200-
SOUTHEAST LOWER MICHIGAN

CITY           SKY/WX    TMP DP  RH WIND       PRES   REMARKS
ADRIAN         MOCLDY    77  68  73 SW12      29.93R
ALMA           MOCLDY    74  68  79 SW9       29.86R
ANN ARBOR      MOCLDY    79  67  66 SW12      29.91R
BAD AXE        MOCLDY    70  68  95 S12       29.85R
CARO           LGT RAIN  70  68  93 SW10G18   29.84S
DETROIT CITY   PTCLDY    82  67  60 S12       29.89R
DETROIT        CLOUDY    79  68  69 S16       29.91R
FLINT          CLOUDY    76  69  79 SW6       29.87R
GROSSE ILE     MOCLDY    79  70  73 SW15G21   29.90R
HILLSDALE      CLOUDY    77  71  79 SW7G17    29.93R
HOWELL         CLOUDY    77  67  72 SW12      29.88R

CITY           SKY/WX    TMP DP  RH WIND       PRES   REMARKS
JACKSON        CLOUDY    74  69  85 SW8       29.91R
LAMBERTVILLE   MOCLDY    79  68  69 S7G20     29.93R
LANSING        CLOUDY    74  67  78 SW14      29.88R
LAPEER         MOCLDY    77  66  69 SW7       29.87R
MASON          CLOUDY    75  67  76 SW7       29.89R
MONROE         MOCLDY    79  68  69 SW10      29.90R
MT. CLEMENS    MOCLDY    80  66  62 SW12G21   29.88R
PONTIAC        CLOUDY    79  66  64 S10G20    29.88R
PORT HOPE        N/A     72  68  87 VRB3      29.81S
PORT HURON     MOCLDY    77  70  78 S13G18    29.88R
TRI CITIES     MOCLDY    76  69  79 SW10      29.84R
TROY           MOCLDY    81  65  57 SW15G21   29.90R
SAGINAW HB     MOCLDY    72  72 100 SW7       29.84R
$$
MIZ043>046-050>051-056>058-064>065-071>073-077>080-310200-
SOUTHWEST LOWER MICHIGAN

CITY           SKY/WX    TMP DP  RH WIND       PRES   REMARKS
BATTLE CREEK   CLOUDY    75  67  76 SW13      29.91R
BENTON HARBOR  PTCLDY    74  69  85 SW5       29.88R
BIG RAPIDS     PTCLDY    72  67  86 W9        29.84R
COLDWATER      LGT RAIN  72  69  92 SW3       29.92R
FREMONT        CLOUDY    72  65  78 SW9       29.84R
HOLLAND        PTCLDY    75  68  78 SW7       29.88R
GRAND RAPIDS   MOCLDY    76  71  85 SW9       29.87R
IONIA          FAIR      75  69  82 W9        29.86R
KALAMAZOO      TSTM      70  66  87 SW18G24   29.91R FOG
LUDINGTON      CLOUDY    69  67  93 W6        29.82R
MARSHALL       CLOUDY    73  67  80 SW8       29.91R
MOUNT PLEASANT PTCLDY    75  64  70 SW8       29.83R
MUSKEGON       MOCLDY    72  65  78 SW8       29.85R
SOUTH HAVEN    PTCLDY    76  68  76 SW5       29.88R
$$
MIZ016>042-310200-
NORTHERN LOWER MICHIGAN

CITY           SKY/WX    TMP DP  RH WIND       PRES   REMARKS
ALPENA         CLOUDY    71  69  93 SW6       29.77R
BEAVER ISLAND  CLOUDY    66  65  96 W6        29.75R
BELLAIRE       CLOUDY    72  65  78 SW12G18   29.77R
CADILLAC       CLOUDY    69  67  94 SW10G17   29.83R
CHARLEVOIX     CLOUDY    69  68  96 SW7       29.79R
FRANKFORT      CLOUDY    67  62  85 NW9       29.81R
GAYLORD        CLOUDY    68  66  93 SW12      29.79R
GRAYLING       MOCLDY    69  68  96 SW7       29.81R
HARBOR SPRINGS CLOUDY    69  66  90 W6        29.75R
HOUGHTON LAKE  MOCLDY    71  66  84 SW9       29.82R
MANISTEE       CLOUDY    70  64  83 W7        29.82R
OSCODA         PTCLDY    71  69  95 S10       29.78R
PELLSTON       CLOUDY    69  67  93 W7        29.75R
ROGERS CITY    CLOUDY    66  66 100 MISG      29.76S FOG
TRAVERSE CITY  CLOUDY    71  65  81 W12       29.78R
$$
MIZ007>008-015-310200-
EASTERN UPPER MICHIGAN

CITY           SKY/WX    TMP DP  RH WIND       PRES   REMARKS
KINROSS        CLOUDY    70  68  94 CALM      29.73S
MACKINAC ISLAN CLOUDY    67  67  99 W5        29.74R
NEWBERRY       FOG       62  62 100 NW9       29.75R VSB 1/2
S. S. MARIE    CLOUDY    70  66  87 CALM      29.73R
MUNISING         N/A     59  56  89 NW9       29.80R
$$
MIZ004>006-011>014-085-310200-
CENTRAL UPPER MICHIGAN

CITY           SKY/WX    TMP DP  RH WIND       PRES   REMARKS
MANISTIQUE     CLOUDY    59  59  99 NW13G20   29.77R FOG
ESCANABA       CLOUDY    63  57  82 NW9       29.80R
MENOMINEE      MOCLDY    64  61  88 N7        29.82R
SAWYER-GWINN   CLOUDY    59  57  94 N10G17    29.83R FOG
$$
MIZ001>003-009>011-084-310200-
WESTERN UPPER MICHIGAN

CITY           SKY/WX    TMP DP  RH WIND       PRES   REMARKS
IRON MOUNTAIN  CLOUDY    61  57  87 NW10      29.84R
HOUGHTON       CLOUDY    58  54  86 NW6       29.88R
COPPER HARBOR    N/A     58  54  86 N8        29.86R
$$

ABBREVIATIONS USED IN REMARKS
   TC - TEMPERATURE IN CELSIUS
  WCI - WIND CHILL INDEX
   HX - HEAT INDEX
  VSB - VISIBILITY



USA.gov is the U.S. government's official web portal to all federal, state and local government web resources and services.